www.pogodaiklimat.ru

Погода и климат >> Архив погоды >> Украина >> Яворов


ПОГОДА в Яворове

  • Прогноз погоды в Яворове
  • Монитор погоды в Яворове

АРХИВ ПОГОДЫ в Яворове

Время (UTC), дата Ветер
(напр.,м/с)
 
Видим.   Явления Облачность Т
(С)
Тd
(С)
f
(%)
Тe
(С)
Тes
(С)
Комфортность P
(гПа)
Po
(гПа)
Тmin
(С)
Tmax
(С)
R
(мм)
R24
(мм)
S
(см)
12 10.08 штиль 0 50 км 10/0 2000 м
[Ac und]
+26.9 +15.3 49 +30 +35 душно 1014.5 988.4
18 10.08 ЮВ 2 50 км 9/0 2000 м
[Ac trans]
+25.0 +18.1 66 +29 +29 душно 1013.8 987.5 +28.5
00 11.08 штиль 0 10 км слаб. ливневой дождь {гроза} 10/10 600 м
[Cb cap]
+20.8 +19.2 91 +25 +25 комфорт 1015.1 988.4
06 11.08 СЗ 2 4000 м слаб. ливневой дождь 10/10 600 м
[Cb cap]
+18.7 +18.1 96 +20 +20 1018.4 991.5 +18.3 17
12 11.08 З 2 50 км {ливн. осадки} 4/4 1000 м
[Cu med, cong]
+26.5 +17.7 58 +31 +38 душно 1017.5 991.3
18 11.08 штиль 0 50 км 6/0 2000 м
[Ac trans Cc]
+23.7 +18.0 70 +28 +28 душно 1017.0 990.5 +26.8 0.0
00 12.08 В 2 10 км ясно +17.6 +15.9 90 +18 +18 1017.1 990.1
06 12.08 ЮВ 2 20 км ясно +21.5 +18.8 85 +26 +30 душно 1015.5 988.9 +16.4
09 12.08 ЮВ 3 20 км 5/0 2000 м
[Ac trans]
+27.6 +20.7 66 +34 +42 очень
душно
1014.5 988.4
12 12.08 Ю 3 50 км 4/4 1000 м
[Cu med, cong]
+31.2 +22.0 58 +40 +46 очень
душно
1012.9 987.2
15 12.08 Ю 3 50 км 5/5 1000 м
[Cb calv]
+30.6 +22.1 61 +40 +41 очень
душно
1012.0 986.3
18 12.08 Ю 2 50 км 4/4 1000 м
[Cb calv]
+26.9 +22.7 78 +36 +36 очень
душно
1011.4 985.4 +31.4
21 12.08 Ю 2 20 км ясно +24.1 +20.1 78 +30 +30 очень
душно
1011.8 985.5
00 13.08 ЮВ 2 10 км 8/8 1000 м
[Sc]
+23.3 +18.9 76 +30 +30 очень
душно
1011.0 984.7
03 13.08 В 1 10 км 8/8 1000 м
[Sc]
+20.6 +19.0 91 +26 +26 душно 1011.0 984.4
06 13.08 СЗ 2 10 км 10/10 600 м
[Cb cap]
+20.6 +18.5 88 +25 +25 комфорт 1013.7 987.0 +19.3
09 13.08 СЗ 3 20 км 10/10 600 м
[Cb cap]
+20.6 +18.4 87 +25 +25 комфорт 1014.8 988.1
12 13.08 З 3 50 км 6/6 600 м
[Cb cap]
+21.6 +18.4 82 +26 +30 душно 1015.3 988.7
15 13.08 СЗ 2 10 км 10/10 600 м
[Cb cap]
+20.1 +17.2 83 +24 +24 комфорт 1015.6 988.9
18 13.08 В 2 10 км в посл. час гроза {ливн. осадки} 9/9 600 м
[Cb cap]
+17.6 +16.1 91 +18 +18 1014.7 985.3 +23.3 8
21 13.08 штиль 0 2000 м в посл. час ливневой дождь 10/10 600 м
[Cb cap]
+17.5 +16.7 95 +17 +17 1016.2 989.2
00 14.08 С 1 2000 м слаб. ливневой дождь 10/10 600 м
[Cb cap]
+16.9 +16.2 96 +18 +18 1013.7 986.7
03 14.08 В 4 2000 м слаб. ливневой дождь, в посл. час гроза 10/10 600 м
[Cb cap]
+17.1 +16.4 96 +17 +17 1012.1 985.2
06 14.08 В 3 4000 м в посл. час гроза {ливн. осадки} 10/10 600 м
[Cb cap]
+17.3 +16.6 96 +17 +17 1010.8 983.9 +16.9 27
09 14.08 З 2 4000 м слаб. ливневой дождь 10/10 600 м
[Cb cap]
+18.2 +17.6 96 +19 +19 1011.6 984.8
12 14.08 С 3 4000 м слаб. ливневой дождь 10/10 600 м
[Cb cap]
+18.2 +17.7 97 +19 +19 1010.8 984.0
15 14.08 СЗ 3 4000 м слаб. ливневой дождь 10/10 600 м
[Cb cap]
+14.2 +13.7 97 +13 +13 1014.7 987.4
18 14.08 СЗ 1 4000 м слаб. ливневой дождь 10/10 600 м
[Cb cap]
+13.4 +12.9 97 +13 +13 1016.4 989.0 +18.2 18
00 15.08 СЗ 1 2000 м дымка {ливн. осадки} 10/10 600 м
[Cb cap]
+12.6 +12.0 96 +13 +13 1017.8 990.3
06 15.08 СЗ 1 4000 м дымка 9/9 1000 м
[Sc]
+12.6 +11.7 94 +13 +13 1018.3 990.8 +12.0 3
12 15.08 В 2 50 км 9/4 1000 м
[Cu med, cong Cs]
+19.4 +10.6 57 +21 +27 комфорт 1015.9 989.1
18 15.08 Ю 1 50 км 9/0 2000 м
[Ac trans Cs]
+16.5 +13.7 84 +17 +17 1016.0 988.9 +21.0
00 16.08 ЮВ 1 4000 м дымка 3/0 2000 м
[Ac trans]
+11.8 +11.0 95 +12 +12 1017.0 989.4
06 16.08 В 1 10 км 3/0 2000 м
[Ac trans]
+13.9 +11.7 87 +14 +18 1017.2 989.8 +9.5
12 16.08 В 1 50 км 5/5 1000 м
[Cu med, cong]
+21.5 +9.3 46 +23 +30 комфорт 1015.6 989.0
18 16.08 штиль 0 50 км 4/0 2000 м
[Ac trans]
+18.0 +10.8 63 +18 +18 1016.1 989.2 +22.9
06 17.08 штиль 0 10 км ясно +13.6 +11.0 84 +13 +18 1018.0 990.6 +8.9

 

Местоположение метеостанции Яворов (Львовская область, Украина): широта 49.93 долгота 23.38 высота над уровнем моря 229 м.

В архиве по умолчанию представлена погода в Яворове за последнюю неделю. Архивные данные за месяц целиком и за предыдущие месяцы, начиная с января 2011 года, Вы можете получить, выбрав интересующий диапазон дат из раскрывающегося списка и нажав кнопку "Ввод!".


*Определитесь, кто Вы:
робот инопланетянин человек

Внимание! Время в таблицах - всемирное. Для получения местного времени необходимо прибавить поправку, которая равна 2 ч.

Смотрите также архив погоды в соседних городах и на ближайших метеорологических станциях:

Погода в Мостиске (Львовская область, Украина) (22 км)
Погода в Раве-Русской (Львовская область, Украина) (40 км)
Погода в Львове (Львовская область, Украина) (43 км)
Погода в Пшемысле (Польша) (47 км)
Погода в Дрогобыче (Львовская область, Украина) (65 км)
Погода в Каменке-Бугской (Львовская область, Украина) (72 км)
Погода в Стрые (Львовская область, Украина) (81 км)
Погода в Замостье (Польша) (86 км)
Погода в Леско (Польша) (90 км)
Погода в Межгорье (Закарпатская область, Украина) (90 км)

Пояснения к столбцам:

Ветер - указаны скорость ветра в м/с - средняя за 10 мин, порывы в срок и между сроками (в фигурных скобках) и направление, откуда дует ветер: С - северный, СВ - северо-восточный, В - восточный, ЮВ - юго-восточный, Ю - южный, ЮЗ - юго-западный, З - западный, СЗ - северо-западный.
Видимость - горизонтальная дальность видимости в метрах или километрах. При видимости от 1 до 10 км при отсутствии осадков обычно наблюдается дымка, при ухудшении видимости до 1 км и менее - туман. В сухую погоду видимость может ухудшаться дымом, пылью или мглою.
Явления - указаны атмосферные явления, наблюдавшиеся в срок или в последний час перед сроком; фигурными скобками обозначены явления, наблюдавшиеся между сроками (за 1-3 часа до срока); квадратными скобками обозначены град или гололедные отложения с указанием их диаметра в мм.
Облачность - указаны через наклонную черту общая и нижняя облачность в баллах и высота нижней границы облаков в метрах; квадратными скобками обозначены формы облаков: Ci - перистые, Cs - перисто-слоистые, Cc - перисто-кучевые, Ac - высококучевые, As - высокослоистые, Sc - слоисто-кучевые, Ns - слоисто-дождевые, Cu - кучевые, Cb - кучево-дождевые. Подробнее классификацию облаков см. в Атласе облаков (PDF).
T - Температура воздуха - температура, измеренная на высоте 2 м над землей.
Td - Температура точки росы - температура, при понижении до которой содержащийся в воздухе водяной пар достигнет насыщения.
f - Относительная влажность воздуха - влажноcть воздуха, измеренная на высоте 2 м над землей.
Te - Эффективная температура - температура, которую ощущает одетый по сезону человек в тени. Характеристика душности погоды. При расчете учитывается влияние влажности воздуха и скорости ветра на теплоощущения человека.
Tes - Эффективная температура на солнце - температура, которую ощущает человек, с поправкой на солнечный нагрев. Характеристика знойности погоды. Зависит от высоты солнца над горизонтом, облачности и скорости ветра. Ночью, в пасмурную погоду, а также при ветре 12 м/с и более поправка равна нулю.
P - Атмосферное давление - приведенное к уровню моря атмосферное давление.
Po - Атмосферное давление - измеренное на уровне метеостанции атмосферное давление.
Tmin - Минимальная температура - минимум температуры воздуха на высоте 2 м над землей.
Tmax - Максимальная температура - максимум температуры воздуха на высоте 2 м над землей.
R - Количество осадков - Количество выпавших осадков за период времени, мм. При наведении курсора мыши на число - период времени, за который выпало указанное количество осадков.
R24 - Количество осадков - Количество выпавших осадков за 24 часа, мм.
S - Снежный покров - Высота снежного покрова, см. При наведении курсора мыши на число - состояние снежного покрова и степень покрытия местности в баллах.